DL6DJ-15 Weather Reports


time (UTC)temp
C
wind
direction
speed
KPH
gust
KPH
rain 1hr
cm
rain 24hr
cm
rain mn
cm
humidity
%
barometer
mb
20260505192648 13 0.0 0.0 0.00 0.00 0.00 79 1007.8
20260505192148 13 0.0 0.0 0.00 0.00 0.00 79 1007.7
20260505191649 13 0.0 0.0 0.00 0.00 0.00 78 1007.6
20260505191147 13 0.0 0.0 0.00 0.00 0.00 77 1007.6
20260505190647 13 0.0 0.0 0.00 0.00 0.00 76 1007.5
20260505190146 14 0.0 0.0 0.00 0.00 0.00 76 1007.4
20260505185646 14 0.0 0.0 0.00 0.00 0.00 76 1007.4
20260505185146 14 0.0 0.0 0.00 0.00 0.00 75 1007.3
20260505184645 14 0.0 0.0 0.00 0.00 0.00 76 1007.3
20260505184145 14 0.0 0.0 0.00 0.00 0.00 75 1007.2
20260505183645 14 0.0 0.0 0.00 0.00 0.00 74 1007.1
20260505183145 14 0.0 0.0 0.00 0.00 0.00 74 1007.2
20260505182645 14 0.0 0.0 0.00 0.00 0.00 74 1007.0
20260505182144 15 0.0 0.0 0.00 0.00 0.00 73 1007.1
20260505181643 14 0.0 0.0 0.00 0.00 0.00 74 1007.0
20260505181143 14 0.0 0.0 0.00 0.00 0.00 74 1007.1
20260505180642 14 0.0 0.0 0.00 0.00 0.00 74 1006.9
20260505180143 15 0.0 0.0 0.00 0.00 0.00 73 1006.9
20260505175642 15 0.0 0.0 0.00 0.00 0.00 72 1006.9
20260505175141 15 0.0 0.0 0.00 0.00 0.00 71 1006.9
20260505174641 16 0.0 0.0 0.00 0.00 0.00 70 1006.9
20260505174141 16 0.0 0.0 0.00 0.00 0.00 69 1006.8
20260505173641 16 0.0 0.0 0.00 0.00 0.00 69 1006.9
20260505173140 16 0.0 0.0 0.00 0.00 0.00 69 1006.9
20260505172640 16 0.0 0.0 0.00 0.00 0.00 70 1007.0
20260505172139 16 0.0 0.0 0.00 0.00 0.00 70 1007.2
20260505171639 16 0.0 0.0 0.00 0.00 0.00 71 1007.3
20260505171139 15 0.0 0.0 0.00 0.00 0.00 70 1007.3
20260505170639 16 0.0 0.0 0.00 0.00 0.00 69 1007.1
20260505170138 15 0.0 0.0 0.00 0.00 0.00 71 1006.7
20260505165638 15 0.0 0.0 0.00 0.00 0.00 73 1006.8
20260505165138 15 0.0 0.0 0.00 0.00 0.00 71 1006.7
20260505164637 15 0.0 0.0 0.00 0.00 0.00 71 1006.8
20260505164137 15 0.0 0.0 0.00 0.00 0.00 71 1006.9
20260505163636 15 0.0 0.0 0.00 0.00 0.00 70 1006.8
20260505163136 15 0.0 0.0 0.00 0.00 0.00 68 1006.9
20260505162636 16 0.0 0.0 0.00 0.00 0.00 68 1007.0
20260505162135 16 0.0 0.0 0.00 0.00 0.00 67 1006.9
20260505161635 16 0.0 0.0 0.00 0.00 0.00 67 1007.1
20260505161135 16 0.0 0.0 0.00 0.00 0.00 65 1007.0
20260505160634 16 0.0 0.0 0.00 0.00 0.00 66 1006.9
20260505160134 16 0.0 0.0 0.00 0.00 0.00 68 1006.9
20260505153132 18 0.0 0.0 0.00 0.00 0.00 55 1006.5
20260505152632 21 0.0 0.0 0.00 0.00 0.00 53 1006.3
20260505152131 22 0.0 0.0 0.00 0.00 0.00 51 1006.1
20260505151631 23 0.0 0.0 0.00 0.00 0.00 39 1006.0
20260505151130 23 0.0 0.0 0.00 0.00 0.00 35 1005.8
20260505150630 23 0.0 0.0 0.00 0.00 0.00 34 1005.7
20260505150130 23 0.0 0.0 0.00 0.00 0.00 32 1005.6
20260505140625 26 0.0 0.0 0.00 0.00 0.00 27 1005.9
20260505140125 26 0.0 0.0 0.00 0.00 0.00 25 1005.9
20260505130120 28 0.0 0.0 0.00 0.00 0.00 24 1006.5
20260505124618 28 0.0 0.0 0.00 0.00 0.00 25 1006.6
20260505124118 28 0.0 0.0 0.00 0.00 0.00 24 1006.7
20260505123618 27 0.0 0.0 0.00 0.00 0.00 24 1006.7
20260505123117 27 0.0 0.0 0.00 0.00 0.00 25 1006.8
20260505122617 27 0.0 0.0 0.00 0.00 0.00 25 1006.8
20260505122116 27 0.0 0.0 0.00 0.00 0.00 25 1006.8
20260505121616 27 0.0 0.0 0.00 0.00 0.00 24 1006.9
20260505121116 27 0.0 0.0 0.00 0.00 0.00 24 1007.0
20260505120616 27 0.0 0.0 0.00 0.00 0.00 22 1007.0
20260505120115 27 0.0 0.0 0.00 0.00 0.00 23 1007.1
20260505115615 27 0.0 0.0 0.00 0.00 0.00 23 1007.1
20260505115114 29 0.0 0.0 0.00 0.00 0.00 22 1007.2
20260505114614 30 0.0 0.0 0.00 0.00 0.00 21 1007.3
20260505114113 29 0.0 0.0 0.00 0.00 0.00 20 1007.3
20260505113613 30 0.0 0.0 0.00 0.00 0.00 21 1007.2
20260505113113 28 0.0 0.0 0.00 0.00 0.00 23 1007.4
20260505112612 28 0.0 0.0 0.00 0.00 0.00 22 1007.5
20260505112112 28 0.0 0.0 0.00 0.00 0.00 22 1007.6
20260505111611 28 0.0 0.0 0.00 0.00 0.00 23 1007.5
20260505111111 29 0.0 0.0 0.00 0.00 0.00 21 1007.4
20260505110610 29 0.0 0.0 0.00 0.00 0.00 21 1007.7
20260505110110 28 0.0 0.0 0.00 0.00 0.00 23 1007.6
20260505102107 31 0.0 0.0 0.00 0.00 0.00 21 1008.1
20260505101604 30 0.0 0.0 0.00 0.00 0.00 21 1008.2
20260505101103 31 0.0 0.0 0.00 0.00 0.00 22 1008.2
20260505100603 31 0.0 0.0 0.00 0.00 0.00 20 1008.3
20260505095602 32 0.0 0.0 0.00 0.00 0.00 22 1008.3
20260505095101 32 0.0 0.0 0.00 0.00 0.00 22 1008.3
20260505094601 31 0.0 0.0 0.00 0.00 0.00 23 1008.3
20260505094101 30 0.0 0.0 0.00 0.00 0.00 25 1008.5
20260505093600 31 0.0 0.0 0.00 0.00 0.00 24 1008.6
20260505093100 31 0.0 0.0 0.00 0.00 0.00 24 1008.6
20260505092559 32 0.0 0.0 0.00 0.00 0.00 22 1008.7
20260505092059 31 0.0 0.0 0.00 0.00 0.00 22 1008.8
20260505091559 32 0.0 0.0 0.00 0.00 0.00 21 1009.0
20260505091058 32 0.0 0.0 0.00 0.00 0.00 23 1008.9
20260505090558 31 0.0 0.0 0.00 0.00 0.00 23 1008.9
20260505090058 30 0.0 0.0 0.00 0.00 0.00 26 1009.0
20260505085556 29 0.0 0.0 0.00 0.00 0.00 26 1009.1
20260505085056 31 0.0 0.0 0.00 0.00 0.00 23 1009.1
20260505084555 32 0.0 0.0 0.00 0.00 0.00 22 1009.1
20260505084055 33 0.0 0.0 0.00 0.00 0.00 19 1009.1
20260505083555 34 0.0 0.0 0.00 0.00 0.00 19 1009.2
20260505083054 33 0.0 0.0 0.00 0.00 0.00 22 1009.2
20260505082554 32 0.0 0.0 0.00 0.00 0.00 24 1009.0
20260505082054 32 0.0 0.0 0.00 0.00 0.00 24 1009.0
20260505081553 31 0.0 0.0 0.00 0.00 0.00 25 1009.0
20260505081053 31 0.0 0.0 0.00 0.00 0.00 25 1009.2
20260505080553 31 0.0 0.0 0.00 0.00 0.00 24 1009.2
20260505080052 31 0.0 0.0 0.00 0.00 0.00 26 1009.3
20260505075552 30 0.0 0.0 0.00 0.00 0.00 26 1009.3
20260505075052 31 0.0 0.0 0.00 0.00 0.00 24 1009.4
20260505074551 31 0.0 0.0 0.00 0.00 0.00 25 1009.4
20260505074051 31 0.0 0.0 0.00 0.00 0.00 25 1009.5
20260505073550 31 0.0 0.0 0.00 0.00 0.00 24 1009.4
20260505073050 31 0.0 0.0 0.00 0.00 0.00 24 1009.6
20260505072550 31 0.0 0.0 0.00 0.00 0.00 24 1009.6
20260505072049 31 0.0 0.0 0.00 0.00 0.00 26 1009.6
20260505071549 31 0.0 0.0 0.00 0.00 0.00 24 1009.7
20260505071048 31 0.0 0.0 0.00 0.00 0.00 23 1009.7
20260505070548 30 0.0 0.0 0.00 0.00 0.00 26 1009.7
20260505070047 31 0.0 0.0 0.00 0.00 0.00 26 1009.7
20260505065547 31 0.0 0.0 0.00 0.00 0.00 25 1009.7
20260505065047 30 0.0 0.0 0.00 0.00 0.00 26 1009.8
20260505064547 30 0.0 0.0 0.00 0.00 0.00 26 1009.8
20260505064046 30 0.0 0.0 0.00 0.00 0.00 27 1009.9
20260505063545 30 0.0 0.0 0.00 0.00 0.00 26 1009.8
20260505063045 30 0.0 0.0 0.00 0.00 0.00 27 1009.9
20260505062545 29 0.0 0.0 0.00 0.00 0.00 28 1009.9
20260505062045 28 0.0 0.0 0.00 0.00 0.00 30 1009.9
20260505061544 27 0.0 0.0 0.00 0.00 0.00 30 1009.9
20260505061043 26 0.0 0.0 0.00 0.00 0.00 32 1010.1
20260505060543 25 0.0 0.0 0.00 0.00 0.00 34 1010.0
20260505060044 23 0.0 0.0 0.00 0.00 0.00 36 1010.0
20260505055543 23 0.0 0.0 0.00 0.00 0.00 38 1010.0
20260505055042 25 0.0 0.0 0.00 0.00 0.00 35 1010.0
20260505054542 24 0.0 0.0 0.00 0.00 0.00 34 1009.9
20260505054041 25 0.0 0.0 0.00 0.00 0.00 33 1009.9
20260505053541 25 0.0 0.0 0.00 0.00 0.00 34 1009.9
20260505053041 25 0.0 0.0 0.00 0.00 0.00 33 1009.9
20260505052540 24 0.0 0.0 0.00 0.00 0.00 35 1009.9
20260505052040 23 0.0 0.0 0.00 0.00 0.00 37 1009.9
20260505051540 21 0.0 0.0 0.00 0.00 0.00 40 1009.9
20260505051039 20 0.0 0.0 0.00 0.00 0.00 43 1009.8
20260505050539 18 0.0 0.0 0.00 0.00 0.00 49 1009.7
20260505041535 10 0.0 0.0 0.00 0.00 0.00 69 1010.1
20260505041035 10 0.0 0.0 0.00 0.00 0.00 69 1010.0
20260505040534 10 0.0 0.0 0.00 0.00 0.00 69 1009.9
20260505040034 10 0.0 0.0 0.00 0.00 0.00 68 1010.0
20260505035534 10 0.0 0.0 0.00 0.00 0.00 68 1010.0
20260505035034 10 0.0 0.0 0.00 0.00 0.00 67 1010.0
20260505034533 10 0.0 0.0 0.00 0.00 0.00 69 1009.9
20260505034033 10 0.0 0.0 0.00 0.00 0.00 67 1009.9
20260505033532 10 0.0 0.0 0.00 0.00 0.00 67 1009.8
20260505033032 10 0.0 0.0 0.00 0.00 0.00 66 1009.9
20260505032532 11 0.0 0.0 0.00 0.00 0.00 67 1010.0
20260505032031 10 0.0 0.0 0.00 0.00 0.00 66 1010.0
20260505031531 10 0.0 0.0 0.00 0.00 0.00 67 1010.0
20260505031030 11 0.0 0.0 0.00 0.00 0.00 66 1010.0
20260505030530 11 0.0 0.0 0.00 0.00 0.00 67 1010.0
20260505030030 11 0.0 0.0 0.00 0.00 0.00 67 1010.1
20260505025529 11 0.0 0.0 0.00 0.00 0.00 67 1010.2
20260505025029 11 0.0 0.0 0.00 0.00 0.00 68 1010.2
20260505024529 11 0.0 0.0 0.00 0.00 0.00 66 1010.2
20260505024028 11 0.0 0.0 0.00 0.00 0.00 66 1010.1
20260505023528 11 0.0 0.0 0.00 0.00 0.00 66 1010.3
20260505023028 11 0.0 0.0 0.00 0.00 0.00 64 1010.2
20260505022527 11 0.0 0.0 0.00 0.00 0.00 65 1010.3
20260505022027 12 0.0 0.0 0.00 0.00 0.00 63 1010.3
20260505021527 12 0.0 0.0 0.00 0.00 0.00 62 1010.4
20260505021026 12 0.0 0.0 0.00 0.00 0.00 62 1010.4
20260505020526 13 0.0 0.0 0.00 0.00 0.00 61 1010.4
20260505020026 13 0.0 0.0 0.00 0.00 0.00 60 1010.4
20260505015525 13 0.0 0.0 0.00 0.00 0.00 59 1010.4
20260505015025 14 0.0 0.0 0.00 0.00 0.00 58 1010.4
20260505014524 14 0.0 0.0 0.00 0.00 0.00 56 1010.5
20260505014024 15 0.0 0.0 0.00 0.00 0.00 57 1010.4
20260505013523 15 0.0 0.0 0.00 0.00 0.00 56 1010.4
20260505013023 15 0.0 0.0 0.00 0.00 0.00 55 1010.5
20260505012523 15 0.0 0.0 0.00 0.00 0.00 54 1010.5
20260505012022 16 0.0 0.0 0.00 0.00 0.00 53 1010.5
20260505011522 16 0.0 0.0 0.00 0.00 0.00 52 1010.5
20260505011021 16 0.0 0.0 0.00 0.00 0.00 52 1010.4
20260505010521 16 0.0 0.0 0.00 0.00 0.00 51 1010.4
20260505010021 16 0.0 0.0 0.00 0.00 0.00 50 1010.4
20260505005520 16 0.0 0.0 0.00 0.00 0.00 50 1010.4
20260505005020 16 0.0 0.0 0.00 0.00 0.00 49 1010.4
20260505004520 16 0.0 0.0 0.00 0.00 0.00 49 1010.5
20260505004019 16 0.0 0.0 0.00 0.00 0.00 50 1010.7
20260505003519 16 0.0 0.0 0.00 0.00 0.00 49 1010.9
20260505003018 16 0.0 0.0 0.00 0.00 0.00 49 1011.1
20260505002518 17 0.0 0.0 0.00 0.00 0.00 49 1011.4
20260505002018 17 0.0 0.0 0.00 0.00 0.00 50 1011.5
20260505001517 17 0.0 0.0 0.00 0.00 0.00 50 1011.5
20260505001017 16 0.0 0.0 0.00 0.00 0.00 52 1011.6
20260505000517 17 0.0 0.0 0.00 0.00 0.00 53 1011.6
20260505000016 17 0.0 0.0 0.00 0.00 0.00 53 1011.8
20260504235516 17 0.0 0.0 0.00 0.00 0.00 54 1011.8
20260504235015 17 0.0 0.0 0.00 0.00 0.00 54 1011.6
20260504234515 17 0.0 0.0 0.00 0.00 0.00 52 1011.6
20260504234015 17 0.0 0.0 0.00 0.00 0.00 53 1011.8
20260504233514 17 0.0 0.0 0.00 0.00 0.00 52 1011.9
20260504233014 17 0.0 0.0 0.00 0.00 0.00 52 1012.0
20260504232514 17 0.0 0.0 0.00 0.00 0.00 50 1012.1
20260504232013 17 0.0 0.0 0.00 0.00 0.00 50 1012.2
20260504231513 17 0.0 0.0 0.00 0.00 0.00 50 1012.3
20260504231012 17 0.0 0.0 0.00 0.00 0.00 50 1012.3
20260504230512 17 0.0 0.0 0.00 0.00 0.00 48 1012.4
20260504230012 17 0.0 0.0 0.00 0.00 0.00 49 1012.4
20260504225511 17 0.0 0.0 0.00 0.00 0.00 48 1012.4
20260504225011 17 0.0 0.0 0.00 0.00 0.00 48 1012.4
20260504224510 17 0.0 0.0 0.00 0.00 0.00 48 1012.4
20260504224010 17 0.0 0.0 0.00 0.00 0.00 47 1012.3
20260504223509 17 0.0 0.0 0.00 0.00 0.00 47 1012.4
20260504223009 17 0.0 0.0 0.00 0.00 0.00 47 1012.5
20260504222509 17 0.0 0.0 0.00 0.00 0.00 47 1012.4
20260504222009 18 0.0 0.0 0.00 0.00 0.00 45 1012.3
20260504221508 18 0.0 0.0 0.00 0.00 0.00 44 1012.2
20260504221008 18 0.0 0.0 0.00 0.00 0.00 44 1012.1
20260504220507 18 0.0 0.0 0.00 0.00 0.00 42 1012.1
20260504220007 18 0.0 0.0 0.00 0.00 0.00 42 1012.1
20260504215506 18 0.0 0.0 0.00 0.00 0.00 42 1012.1
20260504215006 18 0.0 0.0 0.00 0.00 0.00 42 1012.0
20260504214506 18 0.0 0.0 0.00 0.00 0.00 42 1012.1
20260504214005 18 0.0 0.0 0.00 0.00 0.00 42 1012.1
20260504213505 18 0.0 0.0 0.00 0.00 0.00 42 1012.1
20260504213004 18 0.0 0.0 0.00 0.00 0.00 42 1012.2
20260504212504 18 0.0 0.0 0.00 0.00 0.00 41 1012.3
20260504212004 18 0.0 0.0 0.00 0.00 0.00 41 1012.3
20260504211503 18 0.0 0.0 0.00 0.00 0.00 42 1012.3
20260504211003 18 0.0 0.0 0.00 0.00 0.00 42 1012.3
20260504210503 18 0.0 0.0 0.00 0.00 0.00 42 1012.3
20260504210003 18 0.0 0.0 0.00 0.00 0.00 42 1012.3
20260504205502 18 0.0 0.0 0.00 0.00 0.00 40 1012.2
20260504205002 18 0.0 0.0 0.00 0.00 0.00 40 1012.1
20260504204501 18 0.0 0.0 0.00 0.00 0.00 41 1012.1
20260504204001 18 0.0 0.0 0.00 0.00 0.00 41 1012.3
20260504203501 18 0.0 0.0 0.00 0.00 0.00 41 1012.2
20260504203000 18 0.0 0.0 0.00 0.00 0.00 40 1012.2
20260504202500 18 0.0 0.0 0.00 0.00 0.00 41 1012.2
20260504201959 18 0.0 0.0 0.00 0.00 0.00 41 1012.3
20260504201459 18 0.0 0.0 0.00 0.00 0.00 41 1012.2
20260504200958 18 0.0 0.0 0.00 0.00 0.00 41 1012.2
20260504200458 18 0.0 0.0 0.00 0.00 0.00 40 1012.2
20260504195958 18 0.0 0.0 0.00 0.00 0.00 40 1012.2
20260504195457 18 0.0 0.0 0.00 0.00 0.00 39 1012.2
20260504194957 18 0.0 0.0 0.00 0.00 0.00 39 1012.3
20260504194457 19 0.0 0.0 0.00 0.00 0.00 39 1012.3
20260504193956 19 0.0 0.0 0.00 0.00 0.00 38 1012.2
20260504193456 19 0.0 0.0 0.00 0.00 0.00 39 1012.2
20260504192956 19 0.0 0.0 0.00 0.00 0.00 38 1012.3